TIME,DELAY(SENSOR),PRES,OXYGEN,RAWTEMP,T(OPTODE),TCPHASE,FLUOR,BETA(BETA700),BETA(BETA412),BETA(BETA440),CDOM,C(CSC),ED(ED412.20),ED(ED444.00),ED(ED489.60),ED(ED554.30),LU(LU412.10),LU(LU443.90),LU(LU489.70),LU(LU554.70),COMP,TILTX,TILTY,CHECK
1364961060,5811,860.3099975585938000,33.9914207458496100,561.6909179687500000,4.4334812164306640,56.4584884643554700,55,99,100,79,82,15504,0,0,0,0,2147124882,2147768329,2147572644,2147568009,2663,2,13,3631
1364964656,5810,923.5100097656250000,38.8964309692382800,568.7990112304688000,4.2128748893737790,55.7648315429687500,55,100,100,79,81,15501,0,0,0,0,2147123730,2147774573,2147571629,2147571328,3359,2,13,885
1364968256,5809,937.8099975585938000,39.8178482055664060,570.4160766601562000,4.1626281738281250,55.6450996398925800,55,97,98,78,82,15503,0,0,0,0,2147125083,2147763529,2147571483,2147567085,94,2,13,2608
1364971856,5811,970.7700195312500000,41.1086311340332000,572.7623901367188000,4.0896849632263180,55.4823799133300800,55,96,100,78,82,15498,0,0,0,0,2147123657,2147766217,2147570889,2147567744,552,3,13,40494
1364975456,5811,967.5200195312500000,41.0882797241210940,572.8566284179688000,4.0867581367492680,55.4848289489746100,55,98,100,78,82,15496,0,0,0,0,2147121152,2147768493,2147571501,2147568530,3560,2,13,44438
1364979056,5810,978.0300292968750000,41.2737808227539060,573.0161743164062000,4.0817928314208980,55.4563407897949200,55,99,99,78,82,15498,0,0,0,0,2147124946,2147768448,2147570916,2147569225,32,2,13,26597
1364982656,5811,978.6400146484375000,40.9454612731933600,572.9116821289062000,4.0850429534912110,55.5031394958496100,56,98,100,78,83,15499,0,0,0,0,2147124160,2147770377,2147572745,2147572242,106,2,13,53473
1364986256,5809,974.0200195312500000,40.9490585327148440,573.1315917968750000,4.0782032012939450,55.5046882629394500,55,99,100,79,83,15497,0,0,0,0,2147123721,2147770029,2147573476,2147569746,389,2,13,51723
1364989856,5808,976.7100219726562000,40.8444519042968750,573.9840698242188000,4.0516867637634280,55.5346603393554700,55,98,100,78,81,15499,0,0,0,0,2147123437,2147772169,2147572333,2147568530,438,2,13,45347
1364993456,5810,979.0300292968750000,40.2508316040039060,573.3572998046875000,4.0711841583251950,55.6107711791992200,55,97,100,76,81,15498,0,0,0,0,2147127323,2147780416,2147578057,2147572754,310,2,13,9142
1364997056,5809,976.2899780273438000,41.0969314575195300,573.8621215820312000,4.0554809570312500,55.4936408996582000,56,97,100,77,83,15499,0,0,0,0,2147124763,2147771373,2147576320,2147569225,561,2,13,8122
1365000656,5809,984.9199829101562000,41.3153610229492200,573.1704711914062000,4.0769939422607420,55.4576988220214840,54,99,100,78,81,15495,0,0,0,0,2147124598,2147771501,2147566966,2147568932,2685,2,13,56056
1365004256,5812,989.3599853515625000,40.5411186218261700,572.3413085937500000,4.1027808189392090,55.5606803894043000,54,98,101,77,79,15497,0,0,0,0,2147122093,2147770697,2147567597,2147572315,76,2,13,62270
1365007856,5811,983.4799804687500000,41.2319602966308600,573.1898193359375000,4.0763931274414060,55.4652481079101560,54,99,101,78,81,15496,0,0,0,0,2147124964,2147771748,2147575917,2147572434,3175,2,13,3666
1365011456,5813,980.9299926757812000,41.0721282958984400,573.0794067382812000,4.0798258781433105,55.4873580932617200,55,99,99,79,81,15495,0,0,0,0,2147121636,2147775113,2147570560,2147571309,3141,2,13,59063
1365015056,5811,979.2399902343750000,41.0221900939941400,573.7564697265625000,4.0587649345397950,55.5074806213378900,55,96,100,77,82,15494,0,0,0,0,2147122596,2147772406,2147575030,2147572242,3486,2,13,63030
1365018656,5811,978.5800170898438000,41.3081398010253900,574.8928833007812000,4.0234088897705080,55.4764099121093750,55,97,99,78,83,15493,0,0,0,0,2147123849,2147773933,2147572626,2147568438,3253,2,13,61467
1365022256,5809,979.2600097656250000,41.5116081237793000,573.3505859375000000,4.0713901519775390,55.4271507263183600,56,97,100,78,81,15494,0,0,0,0,2147124507,2147773613,2147573376,2147567021,688,2,13,14607
1365025856,5811,983.7700195312500000,40.5268898010253900,574.2117919921875000,4.0446009635925290,55.5841102600097660,55,98,100,77,82,15492,0,0,0,0,2147124553,2147773056,2147569929,2147568685,115,2,13,44296
1365029456,5810,987.8200073242188000,40.9182281494140600,573.0079956054688000,4.0820479393005370,55.5108718872070300,55,99,99,77,82,15490,0,0,0,0,2147123693,2147771766,2147568118,2147567798,170,3,13,37017
1365033056,5805,992.7999877929688000,40.8547210693359400,572.9838256835938000,4.0827999114990230,55.5192718505859400,54,99,100,78,82,15493,0,0,0,0,2147121389,2147774189,2147571501,2147569088,3594,3,13,28450
1365036656,5808,989.9899902343750000,40.9826011657714840,572.9757080078125000,4.0830521583557130,55.5000381469726560,55,98,100,79,82,15490,0,0,0,0,2147122953,2147770898,2147572955,2147570459,3533,2,13,5586
1365040256,5809,987.5700073242188000,41.3945007324218750,573.1447143554688000,4.0777950286865230,55.4466781616210940,54,99,100,78,82,15489,0,0,0,0,2147125760,2147768612,2147569472,2147568054,162,3,13,29886
1365043856,5812,991.9199829101562000,40.9913597106933600,572.9230957031250000,4.0846881866455080,55.4969482421875000,55,97,100,78,82,15491,0,0,0,0,2147124123,2147774052,2147572086,2147567661,3539,2,13,38804
1365047456,5809,985.5499877929688000,40.0673789978027340,572.4990234375000000,4.0978779792785645,55.6323204040527340,55,99,100,79,81,15490,0,0,0,0,2147126454,2147773842,2147569920,2147570176,2857,2,13,52437
1365051056,5809,985.9799804687500000,41.1707000732421900,572.9586181640625000,4.0835819244384770,55.4756507873535160,55,98,100,78,82,15491,0,0,0,0,2147122944,2147771492,2147572406,2147566720,423,2,13,59392
1365054656,5809,994.0700073242188000,40.8263816833496100,573.1510009765625000,4.0776000022888180,55.5245399475097660,56,98,101,78,82,15490,0,0,0,0,2147124534,2147774866,2147571913,2147569362,227,2,13,44355
1365058256,5811,987.8200073242188000,40.5274810791015600,573.3657836914062000,4.0709190368652340,55.5719909667968750,56,97,99,78,83,15489,0,0,0,0,2147124196,2147771529,2147578395,2147563556,144,2,13,42311
1365061856,5809,981.0999755859375000,41.1479682922363300,574.5253295898438000,4.0348467826843260,55.4958496093750000,55,99,99,77,82,15490,0,0,0,0,2147122459,2147773906,2147576768,2147569956,235,2,13,47014
1365065456,5809,976.5700073242188000,41.4991989135742200,575.8690795898438000,3.9930269718170166,55.4600791931152340,54,98,101,78,82,15490,0,0,0,0,2147122038,2147772617,2147570633,2147570340,3168,2,13,41757
1365069056,5809,978.2800292968750000,42.0598411560058600,576.3397827148438000,3.9783740043640137,55.3773498535156250,55,96,100,78,82,15491,0,0,0,0,2147121737,2147767744,2147570313,2147565760,561,2,13,17927
1365072656,5808,988.2000122070312000,41.8272094726562500,575.2763061523438000,4.0114779472351070,55.4031982421875000,55,98,99,78,81,15492,0,0,0,0,2147122715,2147774884,2147569901,2147567936,3315,2,13,48732
1365076256,5811,985.7299804687500000,41.2590408325195300,574.7927856445312000,4.0265250205993650,55.4830589294433600,55,97,98,78,83,15489,0,0,0,0,2147120713,2147778121,2147573860,2147566171,3381,2,13,28295
1365079856,5812,984.9400024414062000,41.1741905212402340,575.5344238281250000,4.0034451484680180,55.5036201477050800,55,99,100,78,82,15442,0,0,0,0,2147121627,2147770304,2147569737,2147568530,7,2,13,50178
1365083456,5809,984.1199951171875000,41.1610107421875000,574.7418212890625000,4.0281119346618650,55.4914894104003900,55,96,99,78,83,15488,0,0,0,0,2147124809,2147764233,2147568886,2147569408,476,2,13,13839
1365087056,5809,997.2899780273438000,40.1743011474609400,573.3422241210938000,4.0716528892517090,55.6233406066894500,54,99,101,77,82,15489,0,0,0,0,2147122605,2147767433,2147576082,2147567616,195,2,13,32435
1365090656,5811,994.7800292968750000,40.6968002319335940,573.4451293945312000,4.0684509277343750,55.5504493713378900,55,97,99,78,81,15486,0,0,0,0,2147122770,2147769508,2147575149,2147568932,3508,2,13,29170
1365094256,5811,987.6300048828125000,40.3064498901367200,573.4597167968750000,4.0679988861083980,55.6086807250976560,56,98,101,78,82,15487,0,0,0,0,2147122377,2147771337,2147571977,2147568585,301,2,13,1335
1365097856,5812,989.6300048828125000,40.7966384887695300,573.4279174804688000,4.0689868927001950,55.5347290039062500,53,97,101,77,80,15487,0,0,0,0,2147123483,2147768256,2147569993,2147569828,15,2,13,13054
1365101456,5809,997.4000244140625000,41.0947494506835940,574.2940063476562000,4.0420441627502440,55.4973602294921900,54,98,100,78,82,15486,0,0,0,0,2147122724,2147773037,2147570203,2147568429,241,2,13,48093
1365105056,5810,997.1400146484375000,40.7003211975097660,573.8060913085938000,4.0572237968444820,55.5525283813476560,55,99,100,78,81,15486,0,0,0,0,2147124781,2147774445,2147573184,2147571200,280,2,13,60184
1365107155,5808,992.1799926757812000,40.1466217041015600,573.1414794921875000,4.0778961181640625,55.6223602294921900,55,98,99,79,82,15488,0,0,0,0,2147124809,2147770532,2147574985,2147570816,215,2,13,12261
